Home > Weather > Perpignan > Past weeks

Flag for France Past Weather in Perpignan, Languedoc-Roussillon, France — Yesterday and Last 2 Weeks

Now
88 °F

Passing clouds.


Feels Like: 85 °F
Forecast: 74 / 91 °F
Wind: 16 mph from North

Location: Perpignan Airport

Current Time: Jul 24, 2016 at 6:43:40 PM

Latest Report: Jul 24, 2016 at 6:00 PM


Visibility: N/A

Pressure: 30.01 "Hg

Humidity: 27%

Dew Point: 50 °F

Location of PerpignanLocation

Past Weather in Perpignan — Graph

°F

Perpignan Temperature Yesterday

Maximum temperature yesterday: 84 °F (at 4:30 PM)
Minimum temperature yesterday: 70 °F (at 1:00 AM)
Average temperature yesterday: 76 °F

High & Low Weather Summary for the Past Weeks

 TemperatureHumidityPressure
High97 °F (Jul 9, 5:00 PM)94% (Jul 18, 2:30 AM)30.27 "Hg (Jul 18, 2:30 AM)
Low63 °F (Jul 14, 5:30 AM)17% (Jul 9, 5:30 PM)29.92 "Hg (Jul 10, 6:30 PM)
Average76 °F50%30.06 "Hg
* Reported Jul 9 5:00 PM — Jul 24 5:30 PM, Perpignan, Weather by CustomWeather, © 2016

Note: Actual official high and low records may vary slightly from our data, if they occured in-between our weather recording intervals... More about our weather records

Advertising

Perpignan Weather History for the Previous 24 Hours

Scroll right to see more
 ConditionsComfort  
Time TempWeatherWind HumidityBarometerVisibility
5:30 PM
Sun, Jul 24
88 °FPassing clouds.16 mph27%30.04 "HgN/A
5:00 PM88 °FPassing clouds.16 mph27%30.04 "HgN/A
4:30 PM88 °FPassing clouds.15 mph29%30.04 "HgN/A
4:00 PM88 °FPassing clouds.17 mph27%30.04 "HgN/A
3:30 PM88 °FPassing clouds.15 mph29%30.07 "HgN/A
3:00 PM88 °FSunny.20 mph29%30.07 "Hg10 mi
2:30 PM86 °FSunny.22 mph31%30.07 "Hg10 mi
2:00 PM86 °FPassing clouds.21 mph29%30.07 "HgN/A
1:30 PM86 °FSunny.23 mph29%30.07 "Hg10 mi
1:00 PM84 °FSunny.23 mph33%30.07 "Hg10 mi
12:30 PM84 °FPassing clouds.20 mph33%30.07 "HgN/A
12:00 PM82 °FPassing clouds.20 mph35%30.07 "HgN/A
11:30 AM82 °FPassing clouds.21 mph37%30.07 "HgN/A
11:00 AM82 °FSunny.17 mph37%30.09 "Hg10 mi
10:30 AM79 °FPassing clouds.17 mph42%30.09 "HgN/A
10:00 AM79 °FPassing clouds.15 mph45%30.09 "HgN/A
9:30 AM77 °FPassing clouds.15 mph47%30.09 "HgN/A
9:00 AM75 °FSunny.16 mph50%30.09 "Hg10 mi
8:30 AM73 °FPassing clouds.14 mph57%30.09 "HgN/A
8:00 AM73 °FPassing clouds.17 mph53%30.09 "HgN/A
7:30 AM72 °FPassing clouds.16 mph57%30.09 "HgN/A
7:00 AM72 °FPassing clouds.15 mph57%30.09 "HgN/A
6:30 AM72 °FPassing clouds.14 mph61%30.09 "HgN/A
6:00 AM72 °FClear.12 mph61%30.09 "Hg10 mi
5:30 AM73 °FPassing clouds.7 mph57%30.09 "HgN/A
5:00 AM73 °FPassing clouds.12 mph57%30.09 "HgN/A
4:30 AM73 °FPassing clouds.15 mph61%30.09 "HgN/A
4:00 AM73 °FOvercast.17 mph61%30.09 "HgN/A
3:30 AM75 °FPassing clouds.18 mph57%30.07 "HgN/A
3:00 AM75 °FPassing clouds.21 mph57%30.07 "HgN/A
2:30 AM75 °FPassing clouds.20 mph54%30.07 "HgN/A
2:00 AM77 °FOvercast.20 mph47%30.07 "HgN/A
1:30 AM77 °FOvercast.17 mph44%30.07 "HgN/A
1:00 AM79 °FOvercast.16 mph42%30.07 "HgN/A
12:30 AM79 °FOvercast.17 mph42%30.09 "HgN/A
12:00 AM79 °FOvercast.17 mph42%30.09 "HgN/A
11:30 PM
Sat, Jul 23
79 °FOvercast.17 mph42%30.09 "HgN/A
11:00 PM79 °FOvercast.20 mph45%30.09 "HgN/A
10:30 PM79 °FOvercast.15 mph45%30.09 "HgN/A
10:00 PM79 °FBroken clouds.17 mph45%30.07 "HgN/A
9:30 PM79 °FPartly sunny.20 mph45%30.07 "HgN/A
9:00 PM79 °FMostly cloudy.22 mph45%30.07 "HgN/A
8:30 PM81 °FOvercast.21 mph42%30.04 "HgN/A
8:00 PM81 °FOvercast.16 mph39%30.04 "HgN/A
7:30 PM81 °FMostly cloudy.20 mph39%30.04 "HgN/A
7:00 PM81 °FPartly sunny.23 mph37%30.04 "HgN/A
6:30 PM81 °FOvercast.23 mph37%30.04 "HgN/A
6:00 PM82 °FBroken clouds.25 mph35%30.04 "HgN/A
Weather by CustomWeather, © 2016

See weather overviewHow to use our weather pages